Погода в Тумнине

Погода в Тумнине : погода сейчас, прогноз погоды и архив. Всё, что Вы хотите узнать о погоде в Тумнине!

Поиск расширенной информации на нашем сайте:

Полезная информация: Павильон стандарт ячеистый поликарбонат.

Другие новости

Новости СМИ2

Главная страница сайта

Новости сайта

02.10.2013

Напоминаем, что на нашем новом сайте вы можете получить высокодетализированные прогнозы погоды по пунктам России, СНГ и мира (включающие важные для авиации метеовеличины, такие как направление и скорость ветра, видимость, явления погоды, количество и форма облачности, нижняя и верхняя граница облачности), а также ознакомиться с разнообразными материалами по авиационной метеорологии и подборкой полезных ссылок на эту тему.

Сайт Метеоцентр.Азия посвящён разработке технологий оптимизации авиаметеорологического обслуживания, включая проектирование и перспективное создание нескольких автоматизированных авиаметеорологических систем:
- система выпуска высокодетальных прогностических карт явлений погоды для нижнего воздушного пространства по России и ближнему зарубежью;
- система верификации прогнозов TAF (выпускаемых синоптиками официальных АМСГ РФ и ближнего зарубежья) и AUTOTAF (выпускаемых сайтом Метеоцентр.Азия) - выявление ошибок, онлайн-сопоставление с фактической погодой METAR, автоматическое внесение коррективов в прогнозы при резком отклонении фактической погоды от прогноза, подсчёт оправдываемости прогнозов по элементам и в целом;
- система обработки, анализа и отображения авиаметеорологической информации для применения провайдерами метеорологической информации.

Рекомендуем: Перевозка грузов из Европы доставка грузов из Европы.

Погода в Тумнине - сегодня

Время (UTC), дата Ветер
(°,м/с) 
Видим.   Явления Облачность Т
(°С)
Тd
(°С)
f(%) Тe
(°С)
Pmin
(гПа)
dP
(гПа)
Po
(мм)
O2
(г/м3)
Тmin Tmax R s Состояние
почвы
09 19.02.17 290 (З) 20000 м    ясно 
-12.8 -21.4 49 -15  1011.1  1.8  753  320    -7.4       
12 19.02.17 310 (СЗ) 20000 м    ясно 
-14 -22.6 48 -16  1011.5  0.3  753  321           
15 19.02.17 040 (СВ) 20000 м    ясно 
-22.8 -25.5 79 -23  1012.1  0.3  753  333           
18 19.02.17 070 (В) 20000 м    3/0 средняя 
[Ac trans]
-27.2 -29.9 78 -28  1012.4  0.2  753  339           
21 19.02.17 тихо ()   20000 м    3/0 средняя 
[Ac trans]
-29.1 -32.3 74 -29  1012.3  0.1  753  342  -29.2      35  равномерный
сухой снег
100% 
00 20.02.17 100 (В) 20000 м    3/0 верхняя 
[Cc]
-23.6 -27.9 68 -24  1012.7  0.5  753  334  -30.2         
03 20.02.17 170 (Ю) 20000 м    3/0 средняя, верхняя 
[Ac trans|Ci fib]
-10.4 -24.3 31 -10  1009.6  -2.6  752  316           
06 20.02.17 320 (СЗ) 20000 м    3/0 средняя 
[Ac trans]
-7.9 -24.4 25 -9  1008.2  -1.3  751  313           
09 20.02.17 320 (СЗ) 20000 м    4/0 верхняя 
[Ci]
-11.9 -25.5 31 -14  1009.8  1.5  752  318    -7.6       
12 20.02.17 тихо ()   20000 м    3/0 верхняя 
[Ci fib]
-20.9 -24.1 75 -21  1011.3  1.3  753  330           
15 20.02.17 050 (СВ) 20000 м    ясно 
-24.6 -28.2 72 -25  1012.3  0.8  753  335           
18 20.02.17 040 (СВ) 20000 м    ясно 
-26 -28.9 77 -27  1012.7  0.3  753  337           
21 20.02.17 060 (СВ) 20000 м    1/0 средняя 
[Ac trans]
-26.7 -29.6 76 -27  1014.5  1.8  755  339  -26.8      33  равномерный
сухой снег
100% 
00 21.02.17 100 (В) 20000 м    6/0 средняя, верхняя 
[Ac trans|Ci]
-16.4 -24 52 -17  1015.9  1.7  756  326  -27.6         
03 21.02.17 280 (З) 20000 м    4/0 средняя, верхняя 
[Ac trans|Ci]
-7 -22.9 27 -8  1015  -0.7  756  314           
06 21.02.17 250 (З) 20000 м    3/0 верхняя 
[Cs]
-6.6 -21.6 29 -10  1015.8  0.8  756  314           
09 21.02.17 320 (СЗ) 20000 м    1/0 верхняя 
[Ci fib]
-9.1 -22.2 34 -11  1018.2  2.3  758  318    -5.9       
12 21.02.17 320 (СЗ) 20000 м    ясно 
-16.1 -21.3 64 -16  1019.7  1.2  759  327           
15 21.02.17 тихо ()   20000 м    ясно 
-21.3 -24.7 74 -21  1020.8  0.9  760  334           
18 21.02.17 тихо ()   20000 м    ясно 
-24.9 -27.7 78 -25  1020.8  0.1  760  339           
21 21.02.17 тихо ()   20000 м    ясно 
-28 -30.9 76 -28  1020.8  0.1  759  343  -28      32  равномерный
сухой снег
100% 
00 22.02.17 тихо ()   20000 м    1/0 верхняя 
[Ci fib]
-17.7 -23.9 58 -18  1019.7  -0.8  759  329           
03 22.02.17 040 (СВ) 20000 м    ясно 
-6.7 -20.5 32 -6  1015.7  -3.6  756  314           
06 22.02.17 240 (ЮЗ) 20000 м    10/0 средняя, верхняя 
[Ac As|Ci fib]
-4.7 -19.1 31 -6  1012.8  -2.8  754  311           
09 22.02.17 тихо ()   20000 м    10/0 средняя 
[Ac As]
-9.2 -15.1 62 -9  1012.5  -0.5  754  316    -3.1       
Время (UTC), дата Ветер
(°,м/с) 
Видим.   Явления Облачность Т
(°С)
Тd
(°С)
f(%) Тe
(°С)
Pmin
(гПа)
dP
(гПа)
Po
(мм)
O2
(г/м3)
Тmin Tmax R s Состояние
почвы

Для получения пояснительной информации подведите курсор к названию столбца.

ПОГОДА в Тумнине - архив

Всё, что Вы хотите узнать о погоде в Тумнине - удобно и подробно!

Выберите нужную дату (начиная с 1 января 2015* года) и нажмите кнопку "Найти".
Будут отображены архивные сводки погоды по пункту Тумнин, начиная с указанной даты.


Отображать данные в формате CSV (для использования в таблицах Excel)


Внимание! Наш архив погоды предназначен исключительно для личного некоммерческого использования в познавательных целях. Если Вам необходимы официальные справки о состоянии погоды (для производственных, юридических, коммерческих и т.п. целей), обращайтесь в органы Росгидромета.

*Примечание: данная дата относится к архиву по метеостанциям СССР (Россия, СНГ, Балтия).
Архив по метеостанциям Зарубежной Европы и Азии (кроме Китая) хранится 10 дней, по другим регионам земного шара (Китай, Африка, Америка, Австралия, Океания) - 1 день.

Тумнин - район местоположения метеостанции


Название, широта, долгота, высота метеостанции:
Тумнин 49.7°ш. 140.1°д. 58 м над ур. моря [Российская Федерация]

Дополнительная информация

В oтличие oт бoльшинства пoгoдных сайтoв мы публикуем пoдрoбную метеoинфoрмацию в детальнoм прoфессиoнальнoм фoрмате.

Характеристики температуры и влажнoсти вoздуха измеряются на высoте 2 м в тени вдали oт зданий и деревьев.
Скoрoсть ветра измеряется на высoте 10 м (на урoвне рoста челoвека скoрoсть ветра ниже в 1.5-2 раза). Если метеoстанция нахoдится в гoрoде или в лесу, тo скoрoсть ветра занижена на 2-4 м/с пo сравнению с oткрытым местoм. Скoрoсть ветра над акватoриями крупных рек и oзёр, а также на вершинах хoлмoв на 2-5 м/с выше, чем в oбычных услoвиях.
Атмoсфернoе давление в разных тoчках местнoсти мoжет значительнo oтличаться oт давления на метеoстанции, в зависимoсти oт услoвий рельефа (при пoдъёме на 10 м давление пoнижается примернo на 1 мм рт.ст.).